When you browse on this site, cookies collect data to enhance your experience and personalize the content and advertising you see.
Visit our Privacy Policy to learn more. By continuing to use the site, you agree to this use of cookies and data.
  • In Czech Republic
  • List of Countries
  • For 7 days
  • Water Temperature
  • Weather Map
  • Weather Widgets
  • user-avatar
    Login

    Hourly Weather Etchmiadzin

    Today, 17 October, Thursday

    Time Temperature Precipitation Wind Pressure Humidity
    00:00 +15°C° 0 mm 1 mps 690 mmHg 30%
    01:00 +15°C° 0 mm 1 mps 690 mmHg 31%
    02:00 +15°C° 0 mm 1 mps 690 mmHg 32%
    03:00 +14°C° 0 mm 1 mps 690 mmHg 36%
    04:00 +14°C° 0 mm 1 mps 690 mmHg 35%
    05:00 +13°C° 0 mm 1 mps 690 mmHg 35%
    06:00 +13°C° 0 mm 1 mps 690 mmHg 35%
    07:00 +16°C° 0 mm 1 mps 691 mmHg 29%
    08:00 +20°C° 0 mm 1 mps 691 mmHg 23%
    09:00 +23°C° 0 mm 1 mps 692 mmHg 17%
    10:00 +24°C° 0 mm 1 mps 692 mmHg 16%
    11:00 +25°C° 0 mm 1 mps 692 mmHg 14%
    12:00 +27°C° 0 mm 1 mps 692 mmHg 13%
    13:00 +27°C° 0 mm 1 mps 691 mmHg 12%
    14:00 +28°C° 0 mm 1 mps 691 mmHg 12%
    15:00 +28°C° 0 mm 2 mps 691 mmHg 11%
    16:00 +25°C° 0 mm 1 mps 690 mmHg 14%
    17:00 +23°C° 0 mm 1 mps 690 mmHg 16%
    18:00 +20°C° 0 mm 1 mps 690 mmHg 19%
    19:00 +19°C° 0 mm 1 mps 690 mmHg 20%
    20:00 +19°C° 0 mm 1 mps 690 mmHg 20%
    21:00 +18°C° 0 mm 2 mps 690 mmHg 21%
    22:00 +18°C° 0 mm 1 mps 690 mmHg 23%
    23:00 +16°C° 0 mm 1 mps 690 mmHg 26%

    Tomorrow, 18 October, Friday

    Time Temperature Precipitation Wind Pressure Humidity
    00:00 +16°C° 0 mm 1 mps 690 mmHg 28%
    01:00 +15°C° 0 mm 1 mps 689 mmHg 28%
    02:00 +15°C° 0 mm 1 mps 689 mmHg 28%
    03:00 +14°C° 0 mm 1 mps 689 mmHg 28%
    04:00 +14°C° 0 mm 1 mps 689 mmHg 29%
    05:00 +14°C° 0 mm 1 mps 689 mmHg 30%
    06:00 +13°C° 0 mm 1 mps 689 mmHg 30%
    07:00 +16°C° 0 mm 1 mps 689 mmHg 25%
    08:00 +20°C° 0 mm 1 mps 690 mmHg 21%
    09:00 +23°C° 0 mm 1 mps 690 mmHg 16%
    10:00 +24°C° 0 mm 1 mps 690 mmHg 15%
    11:00 +26°C° 0 mm 1 mps 690 mmHg 14%
    12:00 +27°C° 0 mm 1 mps 690 mmHg 13%
    13:00 +27°C° 0 mm 1 mps 690 mmHg 14%
    14:00 +28°C° 0 mm 1 mps 689 mmHg 14%
    15:00 +28°C° 0 mm 1 mps 689 mmHg 15%
    16:00 +26°C° 0 mm 1 mps 688 mmHg 18%
    17:00 +23°C° 0 mm 1 mps 688 mmHg 22%
    18:00 +19°C° 0 mm 0 mps 687 mmHg 25%
    19:00 +20°C° 0.1 mm 1 mps 688 mmHg 27%
    20:00 +20°C° 0.1 mm 1 mps 688 mmHg 28%
    21:00 +19°C° 0.1 mm 1 mps 688 mmHg 30%
    22:00 +19°C° 0 mm 1 mps 688 mmHg 31%
    23:00 +18°C° 0 mm 1 mps 688 mmHg 33%

    Day after tomorrow, 19 October, Saturday

    Time Temperature Precipitation Wind Pressure Humidity
    00:00 +18°C° 0 mm 1 mps 688 mmHg 34%
    01:00 +18°C° 0 mm 1 mps 688 mmHg 36%
    02:00 +16°C° 0 mm 1 mps 688 mmHg 38%
    03:00 +16°C° 0 mm 1 mps 687 mmHg 41%
    04:00 +15°C° 0 mm 1 mps 688 mmHg 41%
    05:00 +15°C° 0 mm 1 mps 688 mmHg 41%
    06:00 +15°C° 0 mm 1 mps 688 mmHg 41%
    07:00 +18°C° 0 mm 1 mps 688 mmHg 35%
    08:00 +21°C° 0 mm 1 mps 689 mmHg 29%
    09:00 +24°C° 0 mm 1 mps 689 mmHg 23%
    10:00 +25°C° 0 mm 1 mps 689 mmHg 23%
    11:00 +26°C° 0 mm 1 mps 689 mmHg 22%
    12:00 +28°C° 0 mm 1 mps 689 mmHg 21%
    13:00 +28°C° 0 mm 1 mps 689 mmHg 21%
    14:00 +28°C° 0 mm 1 mps 689 mmHg 20%
    15:00 +29°C° 0 mm 1 mps 688 mmHg 20%
    16:00 +26°C° 0 mm 1 mps 688 mmHg 24%
    17:00 +24°C° 0 mm 1 mps 688 mmHg 28%
    18:00 +22°C° 0 mm 1 mps 688 mmHg 32%
    19:00 +22°C° 0 mm 1 mps 688 mmHg 33%
    20:00 +21°C° 0 mm 1 mps 689 mmHg 34%
    21:00 +21°C° 0 mm 1 mps 689 mmHg 35%
    22:00 +20°C° 0 mm 1 mps 689 mmHg 38%
    23:00 +20°C° 0 mm 1 mps 689 mmHg 40%

    20 October, Sunday

    Time Temperature Precipitation Wind Pressure Humidity
    00:00 +20°C° 0 mm 1 mps 689 mmHg 43%
    01:00 +19°C° 0 mm 1 mps 689 mmHg 46%
    02:00 +18°C° 0 mm 1 mps 689 mmHg 49%
    03:00 +18°C° 0 mm 1 mps 688 mmHg 53%
    04:00 +16°C° 0 mm 1 mps 688 mmHg 54%
    05:00 +16°C° 0 mm 1 mps 689 mmHg 55%
    06:00 +15°C° 0 mm 1 mps 689 mmHg 56%
    07:00 +19°C° 0 mm 1 mps 689 mmHg 49%
    08:00 +21°C° 0 mm 1 mps 690 mmHg 42%
    09:00 +23°C° 0 mm 1 mps 690 mmHg 34%
    10:00 +24°C° 0 mm 1 mps 690 mmHg 32%
    11:00 +26°C° 0 mm 1 mps 690 mmHg 29%
    12:00 +27°C° 0 mm 2 mps 690 mmHg 27%
    13:00 +27°C° 0 mm 2 mps 689 mmHg 26%
    14:00 +27°C° 0 mm 2 mps 689 mmHg 26%
    15:00 +28°C° 0 mm 2 mps 689 mmHg 25%
    16:00 +26°C° 0 mm 2 mps 689 mmHg 30%
    17:00 +24°C° 0 mm 1 mps 689 mmHg 34%
    18:00 +22°C° 0 mm 1 mps 689 mmHg 38%
    19:00 +22°C° 0 mm 1 mps 689 mmHg 40%
    20:00 +20°C° 0 mm 2 mps 689 mmHg 42%
    21:00 +19°C° 0 mm 3 mps 689 mmHg 44%
    22:00 +19°C° 0 mm 2 mps 689 mmHg 46%
    23:00 +19°C° 0 mm 2 mps 689 mmHg 47%

    21 October, Monday

    Time Temperature Precipitation Wind Pressure Humidity
    00:00 +18°C° 0 mm 2 mps 689 mmHg 49%
    01:00 +18°C° 0 mm 2 mps 689 mmHg 52%
    02:00 +17°C° 0 mm 2 mps 689 mmHg 56%
    03:00 +16°C° 0 mm 1 mps 689 mmHg 60%
    04:00 +15°C° 0 mm 1 mps 689 mmHg 62%
    05:00 +15°C° 0 mm 2 mps 689 mmHg 65%
    06:00 +15°C° 0 mm 2 mps 689 mmHg 68%
    07:00 +16°C° 0 mm 1 mps 689 mmHg 61%
    08:00 +19°C° 0 mm 1 mps 690 mmHg 53%
    09:00 +21°C° 0 mm 1 mps 690 mmHg 46%
    10:00 +23°C° 0 mm 1 mps 690 mmHg 42%
    11:00 +24°C° 0 mm 2 mps 690 mmHg 38%
    12:00 +25°C° 0 mm 2 mps 690 mmHg 34%
    13:00 +25°C° 0.1 mm 2 mps 689 mmHg 32%
    14:00 +26°C° 0.1 mm 2 mps 689 mmHg 31%
    15:00 +26°C° 0.1 mm 2 mps 689 mmHg 29%
    16:00 +24°C° 0 mm 2 mps 688 mmHg 34%
    17:00 +21°C° 0 mm 2 mps 688 mmHg 39%
    18:00 +19°C° 0 mm 2 mps 688 mmHg 45%
    19:00 +19°C° 0 mm 2 mps 688 mmHg 48%
    20:00 +18°C° 0 mm 2 mps 688 mmHg 51%
    21:00 +17°C° 0 mm 2 mps 688 mmHg 54%
    22:00 +17°C° 0 mm 2 mps 688 mmHg 56%
    23:00 +16°C° 0 mm 2 mps 688 mmHg 58%

    22 October, Tuesday

    Time Temperature Precipitation Wind Pressure Humidity
    00:00 +16°C° 0 mm 2 mps 688 mmHg 60%
    01:00 +15°C° 0 mm 2 mps 688 mmHg 63%
    02:00 +14°C° 0 mm 2 mps 688 mmHg 66%
    03:00 +14°C° 0 mm 2 mps 688 mmHg 69%
    04:00 +14°C° 0 mm 2 mps 688 mmHg 69%
    05:00 +13°C° 0 mm 1 mps 688 mmHg 70%
    06:00 +13°C° 0 mm 1 mps 688 mmHg 70%
    07:00 +15°C° 0 mm 1 mps 688 mmHg 63%
    08:00 +18°C° 0 mm 1 mps 689 mmHg 56%
    09:00 +20°C° 0 mm 1 mps 689 mmHg 49%
    10:00 +21°C° 0 mm 1 mps 689 mmHg 45%
    11:00 +22°C° 0 mm 1 mps 689 mmHg 42%
    12:00 +23°C° 0 mm 2 mps 689 mmHg 38%
    13:00 +24°C° 0 mm 2 mps 689 mmHg 36%
    14:00 +24°C° 0 mm 2 mps 689 mmHg 34%
    15:00 +25°C° 0 mm 2 mps 688 mmHg 32%
    16:00 +23°C° 0 mm 1 mps 688 mmHg 36%
    17:00 +21°C° 0 mm 1 mps 688 mmHg 40%
    18:00 +16°C° 0 mm 0 mps 688 mmHg 45%
    19:00 +18°C° 0 mm 1 mps 688 mmHg 47%
    20:00 +16°C° 0 mm 1 mps 688 mmHg 50%
    21:00 +16°C° 0 mm 1 mps 688 mmHg 52%
    22:00 +16°C° 0 mm 1 mps 688 mmHg 54%
    23:00 +15°C° 0 mm 1 mps 688 mmHg 56%
    Show more